#timestamp,LO_Frequency,Hit,StdDev 
1528066815.7,286046996.1,N
1528066835.5,286046995.9,N
1528066855.4,286046991.8,Y
1528066875.2,286046997.8,P
1528066925.1,286046995.9,E
1528066935.9,286046997.3,N
1528066955.7,286046998.5,P
1528066975.6,286047000.1,N
1528066995.4,286047001.2,N
1528067015.2,286046998.5,N
1528067035.1,286046998.9,N
1528067036.0,286046998.9,N
1528067055.8,286046998.3,N
1528067075.7,286046997.0,N
1528067095.5,286046997.7,N
1528067115.3,286046999.4,N
1528067135.2,286046999.3,N
1528067155.9,286047000.9,N
1528067175.7,286047000.4,N
1528067195.6,286046998.6,N
1528067215.4,286046999.2,N
1528067235.2,286046999.2,N
1528067255.1,286046999.0,N
1528067256.0,286046999.0,N
1528067275.8,286046999.0,N
1528067295.7,286047000.8,N
1528067315.5,286047000.8,N
1528067335.3,286046998.9,N
1528067355.2,286046997.5,N
1528067375.0,286046999.1,N
1528067375.9,286046999.1,N
1528067395.8,286046998.5,N
1528067415.6,286046999.0,N
1528067435.4,286046998.2,N
1528067455.3,286046999.5,N
1528067475.1,286046997.7,N
1528067495.8,286046995.4,Y
1528067515.7,286046999.5,P
1528067535.5,286047001.0,P
1528067555.4,286047002.6,P
1528067575.2,286047000.6,N
1528067595.0,286047000.3,N
1528067595.9,286047000.3,N
1528067615.8,286046998.8,N
1528067635.6,286046999.3,N
1528067655.4,286046996.8,N
1528067675.3,286046997.1,N
1528067695.1,286046998.9,N
1528067715.9,286046999.3,N
1528067735.7,286046999.2,N
1528067755.5,286046998.4,N
1528067775.4,286046998.4,N
1528067795.2,286046998.1,N
1528067815.1,286046997.1,N
1528067816.0,286046997.1,N
1528067835.8,286046996.7,N
1528067855.6,286046996.5,N
1528067875.5,286046999.6,N
1528067895.3,286046996.5,N
1528067915.1,286046997.0,N
1528067935.9,286046996.9,N
1528067955.7,286046996.7,N
1528067975.6,286046998.5,N
1528067995.4,286047000.2,N
1528068015.2,286047000.4,N
1528068035.1,286047000.4,N
1528068036.0,286047000.4,N
1528068055.8,286046999.3,N
1528068075.7,286046999.4,N
1528068095.5,286046996.9,N
1528068115.4,286046996.7,N
1528068135.2,286046999.1,N
1528068155.0,286046997.9,N
1528068155.9,286046997.9,N
1528068175.8,286046995.0,Y
1528068195.6,286046999.5,P
1528068215.5,286046999.4,N
1528068235.3,286046998.9,N
1528068255.1,286046998.4,Y
1528068275.9,286046998.1,P
1528068295.7,286046998.6,P
1528068315.6,286047001.2,P
1528068335.4,286046999.1,N
1528068355.2,286047000.4,N
1528068375.1,286047002.4,N
1528068376.0,286047002.4,N
1528068395.8,286047002.5,N
1528068415.7,286047002.7,N
1528068435.5,286047002.8,N
1528068455.3,286047001.6,N
1528068475.2,286047002.8,N
1528068495.0,286047001.9,N
1528068495.9,286047001.9,N
1528068515.7,286047001.4,N
1528068535.6,286047003.8,N
1528068555.4,286047003.1,N
1528068575.3,286047003.4,N
1528068595.1,286047004.3,N
1528068596.0,286047004.3,N
1528068615.8,286047004.2,N
1528068635.7,286047002.4,N
1528068655.5,286047004.3,N
1528068675.3,286047003.9,N
1528068695.2,286046999.9,N
1528068715.0,286046999.7,N
1528068715.9,286046999.7,N
1528068735.8,286047000.9,N
1528068755.6,286047001.2,N
1528068775.4,286046997.9,N
1528068795.3,286046996.6,N
1528068815.1,286046997.7,N
1528068835.9,286046998.5,N
1528068855.7,286046998.5,N
1528068875.5,286046998.5,N
1528068895.4,286046999.0,N
1528068915.2,286046998.9,N
1528068935.0,286047000.3,N
1528068935.9,286047000.3,N
1528068955.8,286047002.1,N
1528068975.6,286047000.9,N
1528068995.5,286046997.1,N
1528069015.3,286046997.0,N
1528069035.1,286046997.1,N
1528069055.9,286046997.8,N
1528069075.7,286046995.8,N
1528069095.6,286046996.7,N
1528069115.4,286046996.7,N
1528069135.2,286046999.2,N
1528069155.1,286046999.0,N
1528069156.0,286046999.0,N
1528069175.8,286046999.6,N
1528069195.7,286046997.5,N
1528069215.5,286046997.5,N
1528069235.3,286046996.8,N
1528069255.2,286046997.2,N
1528069275.0,286046997.9,N
1528069275.9,286046997.9,N
1528069295.7,286046999.3,N
1528069315.6,286046999.1,N
1528069335.4,286046996.6,N
1528069355.3,286046997.2,N
1528069375.1,286046999.4,N
1528069376.0,286046999.4,N
1528069395.8,286046999.5,N
1528069415.7,286046998.6,N
1528069435.5,286047001.2,N
1528069455.4,286046996.5,N
1528069475.2,286046998.2,N
1528069495.0,286046998.6,N
1528069495.9,286046998.6,N
1528069515.8,286046998.9,N
1528069535.6,286046999.4,N
1528069555.4,286046998.2,N
1528069575.3,286047001.1,N
1528069595.1,286047000.6,N
1528069615.9,286047002.2,N
1528069635.7,286046999.7,N
1528069655.5,286047001.0,N
1528069675.4,286047001.1,N
1528069695.2,286047000.4,N
1528069715.0,286047000.3,N
1528069715.9,286047000.3,N
1528069735.8,286047000.6,N
1528069755.6,286047001.0,N
1528069775.5,286046998.8,N
1528069795.3,286047001.1,N
1528069815.1,286046998.7,N
1528069835.9,286046998.6,N
1528069855.7,286047001.2,N
1528069875.5,286047001.0,N
1528069895.4,286046999.8,N
1528069915.2,286047000.9,N
1528069935.1,286047001.1,N
1528069936.0,286047001.1,N
1528069955.8,286047002.8,N
1528069975.6,286047002.1,N
1528069995.5,286047000.8,N
1528070015.3,286047002.4,N
1528070035.1,286047000.8,N
1528070055.9,286047000.9,N
1528070075.7,286047001.2,N
1528070095.6,286047001.1,N
1528070115.4,286046998.4,N
1528070135.2,286047000.8,N
1528070155.1,286047001.0,N
1528070156.0,286047001.0,N
1528070175.8,286047000.4,N
1528070195.6,286047000.2,N
1528070215.5,286047001.5,N
1528070235.3,286047002.4,N
1528070255.2,286046999.9,N
1528070275.9,286047001.9,N
1528070295.7,286047004.4,Y
1528070315.6,286047002.5,P
1528070335.4,286047001.9,N
1528070355.2,286047001.5,N
1528070375.1,286047000.1,N
1528070376.0,286047000.1,N
1528070395.8,286047002.5,N
